Gurwin Techsat 1B - Orbit

View from above orbital plane
View from above orbital plane
View from above satellite
View from above satellite

Ground track
Ground track

The orbit data is extracted from the following two-line orbital elements,

1 25397U 98043D   13143.52607094  .00000066  00000-0  47280-4 0   779
2 25397 098.4125 112.3599 0001720 055.2863 058.7191 14.23340873772435
Epoch (UTC): 23 May 2013 12:37:32
Eccentricity: 0.0001720
inclination: 98.4125°
perigee height: 813 km
apogee height: 815 km
right ascension of ascending node: 112.3599°
argument of perigee: 55.2863°
revolutions per day: 14.23340873
mean anomaly at epoch: 58.7191°
orbit number at epoch: 77243

The dashed part of the orbit path shows where the satellite is in the earth's shadow,  

Developed and maintained by Chris Peat, Heavens-Above GmbH. Please read the updated FAQ before sending e-mail. Imprint. DLR